Terminal Aerodrome Forecast
Issued by NWS

Home | Current Version | Previous Version | Text Only | Print | Product List | Glossary On
Versions: 1 2 3 4 5 6 7 8 9 10 11 12 13 14 15 16 17 18 19 20 21 22 23 24 25 26 27 28 29 30 31 32 33 34 35 36 37 38 39 40 41 42
000
FTUS43 KDVN 261238 AAA
TAFCID
TAF AMD
KCID 261238Z 2613/2712 03007KT 1/4SM FG VV002
     FM261500 01004KT 2SM BR OVC005
     FM261800 30008KT 5SM BR OVC012
     FM270600 33004KT 2SM BR OVC009=

USA.gov is the U.S. government's official web portal to all federal, state and local government web resources and services.